owner,sensor,date,latitude,longitude,vertical_datum,sea_water_practical_salinity,qcFlag 
ENP,ioos.station.NOAA.NDBC:GBTF1:1,2019-10-01T00:00:00Z,25.1670,-80.8010,1.5,34.01,11111222 
ENP,ioos.station.NOAA.NDBC:GBTF1:1,2019-10-01T02:00:00Z,25.1670,-80.8010,1.5,34.14,11111222 
ENP,ioos.station.NOAA.NDBC:GBTF1:1,2019-10-01T04:00:00Z,25.1670,-80.8010,1.5,34.14,11111222 
ENP,ioos.station.NOAA.NDBC:GBTF1:1,2019-10-01T05:00:00Z,25.1670,-80.8010,1.5,34.2,11111222 
ENP,ioos.station.NOAA.NDBC:GBTF1:1,2019-10-01T06:00:00Z,25.1670,-80.8010,1.5,35.23,11111222 
ENP,ioos.station.NOAA.NDBC:GBTF1:1,2019-10-01T07:00:00Z,25.1670,-80.8010,1.5,35.54,11111222 
ENP,ioos.station.NOAA.NDBC:GBTF1:1,2019-10-01T08:00:00Z,25.1670,-80.8010,1.5,35.61,11111222 
ENP,ioos.station.NOAA.NDBC:GBTF1:1,2019-10-01T09:00:00Z,25.1670,-80.8010,1.5,35.3,11111222 
ENP,ioos.station.NOAA.NDBC:GBTF1:1,2019-10-01T10:00:00Z,25.1670,-80.8010,1.5,35.62,11111222 
ENP,ioos.station.NOAA.NDBC:GBTF1:1,2019-10-01T11:00:00Z,25.1670,-80.8010,1.5,35.44,11111222 
ENP,ioos.station.NOAA.NDBC:GBTF1:1,2019-10-01T12:00:00Z,25.1670,-80.8010,1.5,35.59,11111222 
ENP,ioos.station.NOAA.NDBC:GBTF1:1,2019-10-01T13:00:00Z,25.1670,-80.8010,1.5,35.59,11111222 
ENP,ioos.station.NOAA.NDBC:GBTF1:1,2019-10-01T14:00:00Z,25.1670,-80.8010,1.5,35.51,11111222 
ENP,ioos.station.NOAA.NDBC:GBTF1:1,2019-10-01T16:00:00Z,25.1670,-80.8010,1.5,35.68,11111222 
ENP,ioos.station.NOAA.NDBC:GBTF1:1,2019-10-01T17:00:00Z,25.1670,-80.8010,1.5,35.64,11111222 
ENP,ioos.station.NOAA.NDBC:GBTF1:1,2019-10-01T18:00:00Z,25.1670,-80.8010,1.5,35.7,11111222 
ENP,ioos.station.NOAA.NDBC:GBTF1:1,2019-10-01T19:00:00Z,25.1670,-80.8010,1.5,35.99,11111222 
ENP,ioos.station.NOAA.NDBC:GBTF1:1,2019-10-01T20:00:00Z,25.1670,-80.8010,1.5,36.21,11111222 
ENP,ioos.station.NOAA.NDBC:GBTF1:1,2019-10-01T21:00:00Z,25.1670,-80.8010,1.5,35.94,11111222 
ENP,ioos.station.NOAA.NDBC:GBTF1:1,2019-10-01T22:00:00Z,25.1670,-80.8010,1.5,35.84,11111222 
ENP,ioos.station.NOAA.NDBC:GBTF1:1,2019-10-01T23:00:00Z,25.1670,-80.8010,1.5,35.66,11111222 
ENP,ioos.station.NOAA.NDBC:GBTF1:1,2019-10-02T00:00:00Z,25.1670,-80.8010,1.5,35.08,11111222 
ENP,ioos.station.NOAA.NDBC:GBTF1:1,2019-10-02T02:00:00Z,25.1670,-80.8010,1.5,34.73,11111222 
ENP,ioos.station.NOAA.NDBC:GBTF1:1,2019-10-02T04:00:00Z,25.1670,-80.8010,1.5,34.5,11111222 
ENP,ioos.station.NOAA.NDBC:GBTF1:1,2019-10-02T05:00:00Z,25.1670,-80.8010,1.5,35.66,11111222 
ENP,ioos.station.NOAA.NDBC:GBTF1:1,2019-10-02T06:00:00Z,25.1670,-80.8010,1.5,36.01,11111222 
ENP,ioos.station.NOAA.NDBC:GBTF1:1,2019-10-02T07:00:00Z,25.1670,-80.8010,1.5,36.07,11111222 
ENP,ioos.station.NOAA.NDBC:GBTF1:1,2019-10-02T08:00:00Z,25.1670,-80.8010,1.5,36.01,11111222 
ENP,ioos.station.NOAA.NDBC:GBTF1:1,2019-10-02T09:00:00Z,25.1670,-80.8010,1.5,36.0,11111222 
ENP,ioos.station.NOAA.NDBC:GBTF1:1,2019-10-02T10:00:00Z,25.1670,-80.8010,1.5,35.93,11111222 
ENP,ioos.station.NOAA.NDBC:GBTF1:1,2019-10-02T11:00:00Z,25.1670,-80.8010,1.5,35.91,11111222 
ENP,ioos.station.NOAA.NDBC:GBTF1:1,2019-10-02T12:00:00Z,25.1670,-80.8010,1.5,35.88,11111222 
ENP,ioos.station.NOAA.NDBC:GBTF1:1,2019-10-02T13:00:00Z,25.1670,-80.8010,1.5,35.91,11111222 
ENP,ioos.station.NOAA.NDBC:GBTF1:1,2019-10-02T14:00:00Z,25.1670,-80.8010,1.5,35.89,11111222 
ENP,ioos.station.NOAA.NDBC:GBTF1:1,2019-10-02T15:00:00Z,25.1670,-80.8010,1.5,35.94,11111222 
ENP,ioos.station.NOAA.NDBC:GBTF1:1,2019-10-02T17:00:00Z,25.1670,-80.8010,1.5,35.92,11111222 
ENP,ioos.station.NOAA.NDBC:GBTF1:1,2019-10-02T18:00:00Z,25.1670,-80.8010,1.5,35.88,11111222 
ENP,ioos.station.NOAA.NDBC:GBTF1:1,2019-10-02T19:00:00Z,25.1670,-80.8010,1.5,35.82,11111222 
ENP,ioos.station.NOAA.NDBC:GBTF1:1,2019-10-02T20:00:00Z,25.1670,-80.8010,1.5,35.77,11111222 
ENP,ioos.station.NOAA.NDBC:GBTF1:1,2019-10-02T21:00:00Z,25.1670,-80.8010,1.5,35.74,11111222 
ENP,ioos.station.NOAA.NDBC:GBTF1:1,2019-10-02T22:00:00Z,25.1670,-80.8010,1.5,35.74,11111222 
ENP,ioos.station.NOAA.NDBC:GBTF1:1,2019-10-02T23:00:00Z,25.1670,-80.8010,1.5,35.74,11111222 
ENP,ioos.station.NOAA.NDBC:GBTF1:1,2019-10-03T04:00:00Z,25.1670,-80.8010,1.5,35.73,11111222 
ENP,ioos.station.NOAA.NDBC:GBTF1:1,2019-10-03T05:00:00Z,25.1670,-80.8010,1.5,35.74,11111222 
ENP,ioos.station.NOAA.NDBC:GBTF1:1,2019-10-03T17:00:00Z,25.1670,-80.8010,1.5,36.25,11111222 
ENP,ioos.station.NOAA.NDBC:GBTF1:1,2019-10-03T18:00:00Z,25.1670,-80.8010,1.5,36.2,11111222 
ENP,ioos.station.NOAA.NDBC:GBTF1:1,2019-10-03T19:00:00Z,25.1670,-80.8010,1.5,36.16,11111222 
ENP,ioos.station.NOAA.NDBC:GBTF1:1,2019-10-03T20:00:00Z,25.1670,-80.8010,1.5,36.22,11111222 
ENP,ioos.station.NOAA.NDBC:GBTF1:1,2019-10-03T21:00:00Z,25.1670,-80.8010,1.5,36.22,11111222 
ENP,ioos.station.NOAA.NDBC:GBTF1:1,2019-10-03T22:00:00Z,25.1670,-80.8010,1.5,36.25,11111222 
ENP,ioos.station.NOAA.NDBC:GBTF1:1,2019-10-03T23:00:00Z,25.1670,-80.8010,1.5,36.28,11111222 
ENP,ioos.station.NOAA.NDBC:GBTF1:1,2019-10-04T00:00:00Z,25.1670,-80.8010,1.5,36.32,11111222 
ENP,ioos.station.NOAA.NDBC:GBTF1:1,2019-10-04T02:00:00Z,25.1670,-80.8010,1.5,36.34,11111222 
ENP,ioos.station.NOAA.NDBC:GBTF1:1,2019-10-04T04:00:00Z,25.1670,-80.8010,1.5,36.37,11111222 
ENP,ioos.station.NOAA.NDBC:GBTF1:1,2019-10-04T05:00:00Z,25.1670,-80.8010,1.5,36.4,11111222 
ENP,ioos.station.NOAA.NDBC:GBTF1:1,2019-10-04T06:00:00Z,25.1670,-80.8010,1.5,36.43,11111222 
ENP,ioos.station.NOAA.NDBC:GBTF1:1,2019-10-04T07:00:00Z,25.1670,-80.8010,1.5,36.43,11111222 
ENP,ioos.station.NOAA.NDBC:GBTF1:1,2019-10-04T08:00:00Z,25.1670,-80.8010,1.5,36.45,11111222 
ENP,ioos.station.NOAA.NDBC:GBTF1:1,2019-10-04T09:00:00Z,25.1670,-80.8010,1.5,36.37,11111222 
ENP,ioos.station.NOAA.NDBC:GBTF1:1,2019-10-04T10:00:00Z,25.1670,-80.8010,1.5,36.28,11111222 
ENP,ioos.station.NOAA.NDBC:GBTF1:1,2019-10-04T11:00:00Z,25.1670,-80.8010,1.5,36.23,11111222 
ENP,ioos.station.NOAA.NDBC:GBTF1:1,2019-10-04T12:00:00Z,25.1670,-80.8010,1.5,36.39,11111222 
ENP,ioos.station.NOAA.NDBC:GBTF1:1,2019-10-04T13:00:00Z,25.1670,-80.8010,1.5,36.34,11111222 
ENP,ioos.station.NOAA.NDBC:GBTF1:1,2019-10-04T14:00:00Z,25.1670,-80.8010,1.5,36.33,11111222 
ENP,ioos.station.NOAA.NDBC:GBTF1:1,2019-10-04T15:00:00Z,25.1670,-80.8010,1.5,36.31,11111222 
ENP,ioos.station.NOAA.NDBC:GBTF1:1,2019-10-04T16:00:00Z,25.1670,-80.8010,1.5,36.29,11111222 
ENP,ioos.station.NOAA.NDBC:GBTF1:1,2019-10-04T17:00:00Z,25.1670,-80.8010,1.5,36.27,11111222 
ENP,ioos.station.NOAA.NDBC:GBTF1:1,2019-10-04T18:00:00Z,25.1670,-80.8010,1.5,36.26,11111222 
ENP,ioos.station.NOAA.NDBC:GBTF1:1,2019-10-04T19:00:00Z,25.1670,-80.8010,1.5,36.26,11111222 
ENP,ioos.station.NOAA.NDBC:GBTF1:1,2019-10-04T20:00:00Z,25.1670,-80.8010,1.5,36.23,11111222 
ENP,ioos.station.NOAA.NDBC:GBTF1:1,2019-10-04T22:00:00Z,25.1670,-80.8010,1.5,36.25,11111222 
ENP,ioos.station.NOAA.NDBC:GBTF1:1,2019-10-04T23:00:00Z,25.1670,-80.8010,1.5,36.26,11111222 
ENP,ioos.station.NOAA.NDBC:GBTF1:1,2019-10-05T00:00:00Z,25.1670,-80.8010,1.5,36.28,11111222 
ENP,ioos.station.NOAA.NDBC:GBTF1:1,2019-10-05T02:00:00Z,25.1670,-80.8010,1.5,36.37,11111222 
ENP,ioos.station.NOAA.NDBC:GBTF1:1,2019-10-05T04:00:00Z,25.1670,-80.8010,1.5,36.37,11111222 
ENP,ioos.station.NOAA.NDBC:GBTF1:1,2019-10-05T05:00:00Z,25.1670,-80.8010,1.5,36.4,11111222 
ENP,ioos.station.NOAA.NDBC:GBTF1:1,2019-10-05T06:00:00Z,25.1670,-80.8010,1.5,36.43,11111222 
ENP,ioos.station.NOAA.NDBC:GBTF1:1,2019-10-05T07:00:00Z,25.1670,-80.8010,1.5,36.43,11111222 
ENP,ioos.station.NOAA.NDBC:GBTF1:1,2019-10-05T08:00:00Z,25.1670,-80.8010,1.5,36.43,11111222 
ENP,ioos.station.NOAA.NDBC:GBTF1:1,2019-10-05T09:00:00Z,25.1670,-80.8010,1.5,36.43,11111222 
ENP,ioos.station.NOAA.NDBC:GBTF1:1,2019-10-05T10:00:00Z,25.1670,-80.8010,1.5,36.44,11111222 
ENP,ioos.station.NOAA.NDBC:GBTF1:1,2019-10-05T11:00:00Z,25.1670,-80.8010,1.5,36.45,11111222 
ENP,ioos.station.NOAA.NDBC:GBTF1:1,2019-10-05T12:00:00Z,25.1670,-80.8010,1.5,36.44,11111222 
ENP,ioos.station.NOAA.NDBC:GBTF1:1,2019-10-05T13:00:00Z,25.1670,-80.8010,1.5,36.58,11111222 
ENP,ioos.station.NOAA.NDBC:GBTF1:1,2019-10-05T14:00:00Z,25.1670,-80.8010,1.5,36.85,11111222 
ENP,ioos.station.NOAA.NDBC:GBTF1:1,2019-10-05T15:00:00Z,25.1670,-80.8010,1.5,37.01,11111222 
ENP,ioos.station.NOAA.NDBC:GBTF1:1,2019-10-05T16:00:00Z,25.1670,-80.8010,1.5,37.03,11111222 
ENP,ioos.station.NOAA.NDBC:GBTF1:1,2019-10-05T17:00:00Z,25.1670,-80.8010,1.5,37.01,11111222 
ENP,ioos.station.NOAA.NDBC:GBTF1:1,2019-10-05T18:00:00Z,25.1670,-80.8010,1.5,36.99,11111222 
ENP,ioos.station.NOAA.NDBC:GBTF1:1,2019-10-05T19:00:00Z,25.1670,-80.8010,1.5,36.95,11111222 
ENP,ioos.station.NOAA.NDBC:GBTF1:1,2019-10-05T20:00:00Z,25.1670,-80.8010,1.5,36.86,11111222 
ENP,ioos.station.NOAA.NDBC:GBTF1:1,2019-10-05T21:00:00Z,25.1670,-80.8010,1.5,36.83,11111222 
ENP,ioos.station.NOAA.NDBC:GBTF1:1,2019-10-05T22:00:00Z,25.1670,-80.8010,1.5,36.79,11111222 
ENP,ioos.station.NOAA.NDBC:GBTF1:1,2019-10-05T23:00:00Z,25.1670,-80.8010,1.5,36.71,11111222 
ENP,ioos.station.NOAA.NDBC:GBTF1:1,2019-10-06T00:00:00Z,25.1670,-80.8010,1.5,36.89,11111222 
ENP,ioos.station.NOAA.NDBC:GBTF1:1,2019-10-06T01:00:00Z,25.1670,-80.8010,1.5,36.93,11111222 
ENP,ioos.station.NOAA.NDBC:GBTF1:1,2019-10-06T02:00:00Z,25.1670,-80.8010,1.5,37.01,11111222 
ENP,ioos.station.NOAA.NDBC:GBTF1:1,2019-10-06T04:00:00Z,25.1670,-80.8010,1.5,37.11,11111222 
ENP,ioos.station.NOAA.NDBC:GBTF1:1,2019-10-06T05:00:00Z,25.1670,-80.8010,1.5,36.79,11111222 
ENP,ioos.station.NOAA.NDBC:GBTF1:1,2019-10-06T06:00:00Z,25.1670,-80.8010,1.5,36.66,11111222 
ENP,ioos.station.NOAA.NDBC:GBTF1:1,2019-10-06T07:00:00Z,25.1670,-80.8010,1.5,36.66,11111222 
ENP,ioos.station.NOAA.NDBC:GBTF1:1,2019-10-06T08:00:00Z,25.1670,-80.8010,1.5,36.73,11111222 
ENP,ioos.station.NOAA.NDBC:GBTF1:1,2019-10-06T09:00:00Z,25.1670,-80.8010,1.5,36.76,11111222 
ENP,ioos.station.NOAA.NDBC:GBTF1:1,2019-10-06T10:00:00Z,25.1670,-80.8010,1.5,36.75,11111222 
ENP,ioos.station.NOAA.NDBC:GBTF1:1,2019-10-06T11:00:00Z,25.1670,-80.8010,1.5,36.66,11111222 
ENP,ioos.station.NOAA.NDBC:GBTF1:1,2019-10-06T12:00:00Z,25.1670,-80.8010,1.5,36.63,11111222 
ENP,ioos.station.NOAA.NDBC:GBTF1:1,2019-10-06T13:00:00Z,25.1670,-80.8010,1.5,36.59,11111222 
ENP,ioos.station.NOAA.NDBC:GBTF1:1,2019-10-06T14:00:00Z,25.1670,-80.8010,1.5,36.57,11111222 
ENP,ioos.station.NOAA.NDBC:GBTF1:1,2019-10-06T15:00:00Z,25.1670,-80.8010,1.5,36.69,11111222 
ENP,ioos.station.NOAA.NDBC:GBTF1:1,2019-10-06T16:00:00Z,25.1670,-80.8010,1.5,37.34,11111222 
ENP,ioos.station.NOAA.NDBC:GBTF1:1,2019-10-06T17:00:00Z,25.1670,-80.8010,1.5,37.58,11111222 
ENP,ioos.station.NOAA.NDBC:GBTF1:1,2019-10-06T18:00:00Z,25.1670,-80.8010,1.5,37.62,11111222 
ENP,ioos.station.NOAA.NDBC:GBTF1:1,2019-10-06T19:00:00Z,25.1670,-80.8010,1.5,37.73,11111222 
ENP,ioos.station.NOAA.NDBC:GBTF1:1,2019-10-06T20:00:00Z,25.1670,-80.8010,1.5,37.74,11111222 
ENP,ioos.station.NOAA.NDBC:GBTF1:1,2019-10-06T21:00:00Z,25.1670,-80.8010,1.5,37.71,11111222 
ENP,ioos.station.NOAA.NDBC:GBTF1:1,2019-10-06T22:00:00Z,25.1670,-80.8010,1.5,37.64,11111222 
ENP,ioos.station.NOAA.NDBC:GBTF1:1,2019-10-06T23:00:00Z,25.1670,-80.8010,1.5,37.53,11111222 
ENP,ioos.station.NOAA.NDBC:GBTF1:1,2019-10-07T00:00:00Z,25.1670,-80.8010,1.5,37.43,11111222 
ENP,ioos.station.NOAA.NDBC:GBTF1:1,2019-10-07T01:00:00Z,25.1670,-80.8010,1.5,37.49,11111222 
ENP,ioos.station.NOAA.NDBC:GBTF1:1,2019-10-07T02:00:00Z,25.1670,-80.8010,1.5,37.63,11111222 
ENP,ioos.station.NOAA.NDBC:GBTF1:1,2019-10-07T04:00:00Z,25.1670,-80.8010,1.5,38.15,11111222 
ENP,ioos.station.NOAA.NDBC:GBTF1:1,2019-10-07T05:00:00Z,25.1670,-80.8010,1.5,38.46,11111222 
ENP,ioos.station.NOAA.NDBC:GBTF1:1,2019-10-07T06:00:00Z,25.1670,-80.8010,1.5,38.53,11111222 
ENP,ioos.station.NOAA.NDBC:GBTF1:1,2019-10-07T07:00:00Z,25.1670,-80.8010,1.5,38.49,11111222 
ENP,ioos.station.NOAA.NDBC:GBTF1:1,2019-10-07T08:00:00Z,25.1670,-80.8010,1.5,38.42,11111222 
ENP,ioos.station.NOAA.NDBC:GBTF1:1,2019-10-07T09:00:00Z,25.1670,-80.8010,1.5,38.33,11111222 
ENP,ioos.station.NOAA.NDBC:GBTF1:1,2019-10-07T10:00:00Z,25.1670,-80.8010,1.5,38.27,11111222 
ENP,ioos.station.NOAA.NDBC:GBTF1:1,2019-10-07T11:00:00Z,25.1670,-80.8010,1.5,38.24,11111222 
ENP,ioos.station.NOAA.NDBC:GBTF1:1,2019-10-07T12:00:00Z,25.1670,-80.8010,1.5,38.15,11111222 
ENP,ioos.station.NOAA.NDBC:GBTF1:1,2019-10-07T14:00:00Z,25.1670,-80.8010,1.5,38.02,11111222 
ENP,ioos.station.NOAA.NDBC:GBTF1:1,2019-10-07T15:00:00Z,25.1670,-80.8010,1.5,38.0,11111222 
ENP,ioos.station.NOAA.NDBC:GBTF1:1,2019-10-07T16:00:00Z,25.1670,-80.8010,1.5,38.69,11111222 
ENP,ioos.station.NOAA.NDBC:GBTF1:1,2019-10-07T17:00:00Z,25.1670,-80.8010,1.5,38.79,11111222 
ENP,ioos.station.NOAA.NDBC:GBTF1:1,2019-10-07T18:00:00Z,25.1670,-80.8010,1.5,38.36,11111222 
ENP,ioos.station.NOAA.NDBC:GBTF1:1,2019-10-07T19:00:00Z,25.1670,-80.8010,1.5,38.25,11111222 
ENP,ioos.station.NOAA.NDBC:GBTF1:1,2019-10-07T20:00:00Z,25.1670,-80.8010,1.5,38.24,11111222 
ENP,ioos.station.NOAA.NDBC:GBTF1:1,2019-10-07T21:00:00Z,25.1670,-80.8010,1.5,38.21,11111222 
ENP,ioos.station.NOAA.NDBC:GBTF1:1,2019-10-08T04:00:00Z,25.1670,-80.8010,1.5,37.99,11111222 
ENP,ioos.station.NOAA.NDBC:GBTF1:1,2019-10-08T06:00:00Z,25.1670,-80.8010,1.5,38.21,11111222 
ENP,ioos.station.NOAA.NDBC:GBTF1:1,2019-10-08T07:00:00Z,25.1670,-80.8010,1.5,38.41,11111222 
ENP,ioos.station.NOAA.NDBC:GBTF1:1,2019-10-08T08:00:00Z,25.1670,-80.8010,1.5,38.51,11111222 
ENP,ioos.station.NOAA.NDBC:GBTF1:1,2019-10-08T09:00:00Z,25.1670,-80.8010,1.5,38.57,11111222 
ENP,ioos.station.NOAA.NDBC:GBTF1:1,2019-10-08T10:00:00Z,25.1670,-80.8010,1.5,38.54,11111222 
ENP,ioos.station.NOAA.NDBC:GBTF1:1,2019-10-08T11:00:00Z,25.1670,-80.8010,1.5,38.44,11111222 
ENP,ioos.station.NOAA.NDBC:GBTF1:1,2019-10-08T12:00:00Z,25.1670,-80.8010,1.5,38.34,11111222 
ENP,ioos.station.NOAA.NDBC:GBTF1:1,2019-10-08T14:00:00Z,25.1670,-80.8010,1.5,38.1,11111222 
ENP,ioos.station.NOAA.NDBC:GBTF1:1,2019-10-08T15:00:00Z,25.1670,-80.8010,1.5,38.01,11111222 
ENP,ioos.station.NOAA.NDBC:GBTF1:1,2019-10-08T16:00:00Z,25.1670,-80.8010,1.5,37.75,11111222 
ENP,ioos.station.NOAA.NDBC:GBTF1:1,2019-10-08T17:00:00Z,25.1670,-80.8010,1.5,37.65,11111222 
ENP,ioos.station.NOAA.NDBC:GBTF1:1,2019-10-08T18:00:00Z,25.1670,-80.8010,1.5,37.84,11111222 
ENP,ioos.station.NOAA.NDBC:GBTF1:1,2019-10-08T19:00:00Z,25.1670,-80.8010,1.5,38.0,11111222 
ENP,ioos.station.NOAA.NDBC:GBTF1:1,2019-10-08T20:00:00Z,25.1670,-80.8010,1.5,37.99,11111222 
ENP,ioos.station.NOAA.NDBC:GBTF1:1,2019-10-08T21:00:00Z,25.1670,-80.8010,1.5,37.94,11111222 
ENP,ioos.station.NOAA.NDBC:GBTF1:1,2019-10-08T22:00:00Z,25.1670,-80.8010,1.5,37.93,11111222 
ENP,ioos.station.NOAA.NDBC:GBTF1:1,2019-10-08T23:00:00Z,25.1670,-80.8010,1.5,37.94,11111222 
ENP,ioos.station.NOAA.NDBC:GBTF1:1,2019-10-09T00:00:00Z,25.1670,-80.8010,1.5,37.82,11111222 
ENP,ioos.station.NOAA.NDBC:GBTF1:1,2019-10-09T02:00:00Z,25.1670,-80.8010,1.5,37.59,11111222 
ENP,ioos.station.NOAA.NDBC:GBTF1:1,2019-10-09T04:00:00Z,25.1670,-80.8010,1.5,37.59,11111222 
ENP,ioos.station.NOAA.NDBC:GBTF1:1,2019-10-09T05:00:00Z,25.1670,-80.8010,1.5,37.61,11111222 
ENP,ioos.station.NOAA.NDBC:GBTF1:1,2019-10-09T06:00:00Z,25.1670,-80.8010,1.5,37.63,11111222 
ENP,ioos.station.NOAA.NDBC:GBTF1:1,2019-10-09T07:00:00Z,25.1670,-80.8010,1.5,37.63,11111222 
ENP,ioos.station.NOAA.NDBC:GBTF1:1,2019-10-09T08:00:00Z,25.1670,-80.8010,1.5,37.63,11111222 
ENP,ioos.station.NOAA.NDBC:GBTF1:1,2019-10-09T09:00:00Z,25.1670,-80.8010,1.5,37.56,11111222 
ENP,ioos.station.NOAA.NDBC:GBTF1:1,2019-10-09T10:00:00Z,25.1670,-80.8010,1.5,37.46,11111222 
ENP,ioos.station.NOAA.NDBC:GBTF1:1,2019-10-09T11:00:00Z,25.1670,-80.8010,1.5,37.32,11111222 
ENP,ioos.station.NOAA.NDBC:GBTF1:1,2019-10-09T13:00:00Z,25.1670,-80.8010,1.5,37.15,11111222 
ENP,ioos.station.NOAA.NDBC:GBTF1:1,2019-10-09T14:00:00Z,25.1670,-80.8010,1.5,37.03,11111222 
ENP,ioos.station.NOAA.NDBC:GBTF1:1,2019-10-09T15:00:00Z,25.1670,-80.8010,1.5,36.93,11111222 
ENP,ioos.station.NOAA.NDBC:GBTF1:1,2019-10-09T16:00:00Z,25.1670,-80.8010,1.5,36.93,11111222 
ENP,ioos.station.NOAA.NDBC:GBTF1:1,2019-10-09T17:00:00Z,25.1670,-80.8010,1.5,36.93,11111222 
ENP,ioos.station.NOAA.NDBC:GBTF1:1,2019-10-09T18:00:00Z,25.1670,-80.8010,1.5,36.91,11111222 
ENP,ioos.station.NOAA.NDBC:GBTF1:1,2019-10-09T19:00:00Z,25.1670,-80.8010,1.5,36.87,11111222 
ENP,ioos.station.NOAA.NDBC:GBTF1:1,2019-10-09T20:00:00Z,25.1670,-80.8010,1.5,36.83,11111222 
ENP,ioos.station.NOAA.NDBC:GBTF1:1,2019-10-09T21:00:00Z,25.1670,-80.8010,1.5,36.65,11111222 
ENP,ioos.station.NOAA.NDBC:GBTF1:1,2019-10-10T00:00:00Z,25.1670,-80.8010,1.5,35.91,11111222 
ENP,ioos.station.NOAA.NDBC:GBTF1:1,2019-10-10T02:00:00Z,25.1670,-80.8010,1.5,36.02,11111222 
ENP,ioos.station.NOAA.NDBC:GBTF1:1,2019-10-10T04:00:00Z,25.1670,-80.8010,1.5,36.02,11111222 
ENP,ioos.station.NOAA.NDBC:GBTF1:1,2019-10-10T05:00:00Z,25.1670,-80.8010,1.5,35.94,11111222 
ENP,ioos.station.NOAA.NDBC:GBTF1:1,2019-10-10T06:00:00Z,25.1670,-80.8010,1.5,35.88,11111222 
ENP,ioos.station.NOAA.NDBC:GBTF1:1,2019-10-10T07:00:00Z,25.1670,-80.8010,1.5,35.95,11111222 
ENP,ioos.station.NOAA.NDBC:GBTF1:1,2019-10-10T08:00:00Z,25.1670,-80.8010,1.5,35.97,11111222 
ENP,ioos.station.NOAA.NDBC:GBTF1:1,2019-10-10T09:00:00Z,25.1670,-80.8010,1.5,35.97,11111222 
ENP,ioos.station.NOAA.NDBC:GBTF1:1,2019-10-10T10:00:00Z,25.1670,-80.8010,1.5,35.99,11111222 
ENP,ioos.station.NOAA.NDBC:GBTF1:1,2019-10-10T11:00:00Z,25.1670,-80.8010,1.5,35.99,11111222 
ENP,ioos.station.NOAA.NDBC:GBTF1:1,2019-10-10T12:00:00Z,25.1670,-80.8010,1.5,35.97,11111222 
ENP,ioos.station.NOAA.NDBC:GBTF1:1,2019-10-10T13:00:00Z,25.1670,-80.8010,1.5,35.94,11111222 
ENP,ioos.station.NOAA.NDBC:GBTF1:1,2019-10-10T15:00:00Z,25.1670,-80.8010,1.5,35.91,11111222 
ENP,ioos.station.NOAA.NDBC:GBTF1:1,2019-10-10T16:00:00Z,25.1670,-80.8010,1.5,35.91,11111222 
ENP,ioos.station.NOAA.NDBC:GBTF1:1,2019-10-10T17:00:00Z,25.1670,-80.8010,1.5,36.0,11111222 
ENP,ioos.station.NOAA.NDBC:GBTF1:1,2019-10-10T18:00:00Z,25.1670,-80.8010,1.5,36.05,11111222 
ENP,ioos.station.NOAA.NDBC:GBTF1:1,2019-10-10T19:00:00Z,25.1670,-80.8010,1.5,36.11,11111222 
ENP,ioos.station.NOAA.NDBC:GBTF1:1,2019-10-10T20:00:00Z,25.1670,-80.8010,1.5,36.13,11111222 
ENP,ioos.station.NOAA.NDBC:GBTF1:1,2019-10-10T21:00:00Z,25.1670,-80.8010,1.5,36.11,11111222 
ENP,ioos.station.NOAA.NDBC:GBTF1:1,2019-10-10T22:00:00Z,25.1670,-80.8010,1.5,36.09,11111222 
ENP,ioos.station.NOAA.NDBC:GBTF1:1,2019-10-10T23:00:00Z,25.1670,-80.8010,1.5,35.68,11111222 
ENP,ioos.station.NOAA.NDBC:GBTF1:1,2019-10-11T00:00:00Z,25.1670,-80.8010,1.5,35.65,11111222 
ENP,ioos.station.NOAA.NDBC:GBTF1:1,2019-10-11T01:00:00Z,25.1670,-80.8010,1.5,35.42,11111222 
ENP,ioos.station.NOAA.NDBC:GBTF1:1,2019-10-11T02:00:00Z,25.1670,-80.8010,1.5,35.31,11111222 
ENP,ioos.station.NOAA.NDBC:GBTF1:1,2019-10-11T04:00:00Z,25.1670,-80.8010,1.5,35.22,11111222 
ENP,ioos.station.NOAA.NDBC:GBTF1:1,2019-10-11T05:00:00Z,25.1670,-80.8010,1.5,35.18,11111222 
ENP,ioos.station.NOAA.NDBC:GBTF1:1,2019-10-11T06:00:00Z,25.1670,-80.8010,1.5,35.14,11111222 
ENP,ioos.station.NOAA.NDBC:GBTF1:1,2019-10-11T07:00:00Z,25.1670,-80.8010,1.5,35.14,11111222 
ENP,ioos.station.NOAA.NDBC:GBTF1:1,2019-10-11T08:00:00Z,25.1670,-80.8010,1.5,35.23,11111222 
ENP,ioos.station.NOAA.NDBC:GBTF1:1,2019-10-11T09:00:00Z,25.1670,-80.8010,1.5,35.38,11111222 
ENP,ioos.station.NOAA.NDBC:GBTF1:1,2019-10-11T10:00:00Z,25.1670,-80.8010,1.5,35.46,11111222 
ENP,ioos.station.NOAA.NDBC:GBTF1:1,2019-10-11T11:00:00Z,25.1670,-80.8010,1.5,35.44,11111222 
ENP,ioos.station.NOAA.NDBC:GBTF1:1,2019-10-11T12:00:00Z,25.1670,-80.8010,1.5,35.3,11111222 
ENP,ioos.station.NOAA.NDBC:GBTF1:1,2019-10-11T13:00:00Z,25.1670,-80.8010,1.5,35.15,11111222 
ENP,ioos.station.NOAA.NDBC:GBTF1:1,2019-10-11T14:00:00Z,25.1670,-80.8010,1.5,35.08,11111222 
ENP,ioos.station.NOAA.NDBC:GBTF1:1,2019-10-11T15:00:00Z,25.1670,-80.8010,1.5,35.06,11111222 
ENP,ioos.station.NOAA.NDBC:GBTF1:1,2019-10-11T16:00:00Z,25.1670,-80.8010,1.5,35.05,11111222 
ENP,ioos.station.NOAA.NDBC:GBTF1:1,2019-10-11T17:00:00Z,25.1670,-80.8010,1.5,35.06,11111222 
ENP,ioos.station.NOAA.NDBC:GBTF1:1,2019-10-11T18:00:00Z,25.1670,-80.8010,1.5,35.61,11111222 
ENP,ioos.station.NOAA.NDBC:GBTF1:1,2019-10-11T19:00:00Z,25.1670,-80.8010,1.5,35.97,11111222 
ENP,ioos.station.NOAA.NDBC:GBTF1:1,2019-10-11T20:00:00Z,25.1670,-80.8010,1.5,35.88,11111222 
ENP,ioos.station.NOAA.NDBC:GBTF1:1,2019-10-11T21:00:00Z,25.1670,-80.8010,1.5,35.82,11111222 
ENP,ioos.station.NOAA.NDBC:GBTF1:1,2019-10-11T22:00:00Z,25.1670,-80.8010,1.5,35.83,11111222 
ENP,ioos.station.NOAA.NDBC:GBTF1:1,2019-10-11T23:00:00Z,25.1670,-80.8010,1.5,35.96,11111222 
ENP,ioos.station.NOAA.NDBC:GBTF1:1,2019-10-12T00:00:00Z,25.1670,-80.8010,1.5,36.05,11111222 
ENP,ioos.station.NOAA.NDBC:GBTF1:1,2019-10-12T01:00:00Z,25.1670,-80.8010,1.5,35.82,11111222 
ENP,ioos.station.NOAA.NDBC:GBTF1:1,2019-10-12T02:00:00Z,25.1670,-80.8010,1.5,35.5,11111222 
ENP,ioos.station.NOAA.NDBC:GBTF1:1,2019-10-12T04:00:00Z,25.1670,-80.8010,1.5,35.42,11111222 
ENP,ioos.station.NOAA.NDBC:GBTF1:1,2019-10-12T05:00:00Z,25.1670,-80.8010,1.5,35.42,11111222 
ENP,ioos.station.NOAA.NDBC:GBTF1:1,2019-10-12T06:00:00Z,25.1670,-80.8010,1.5,35.81,11111222 
ENP,ioos.station.NOAA.NDBC:GBTF1:1,2019-10-12T07:00:00Z,25.1670,-80.8010,1.5,36.11,11111222 
ENP,ioos.station.NOAA.NDBC:GBTF1:1,2019-10-12T08:00:00Z,25.1670,-80.8010,1.5,36.18,11111222 
ENP,ioos.station.NOAA.NDBC:GBTF1:1,2019-10-12T09:00:00Z,25.1670,-80.8010,1.5,36.25,11111222 
ENP,ioos.station.NOAA.NDBC:GBTF1:1,2019-10-12T10:00:00Z,25.1670,-80.8010,1.5,36.28,11111222 
ENP,ioos.station.NOAA.NDBC:GBTF1:1,2019-10-12T11:00:00Z,25.1670,-80.8010,1.5,36.29,11111222 
ENP,ioos.station.NOAA.NDBC:GBTF1:1,2019-10-12T12:00:00Z,25.1670,-80.8010,1.5,36.23,11111222 
ENP,ioos.station.NOAA.NDBC:GBTF1:1,2019-10-12T13:00:00Z,25.1670,-80.8010,1.5,35.96,11111222 
ENP,ioos.station.NOAA.NDBC:GBTF1:1,2019-10-12T14:00:00Z,25.1670,-80.8010,1.5,35.84,11111222 
ENP,ioos.station.NOAA.NDBC:GBTF1:1,2019-10-12T15:00:00Z,25.1670,-80.8010,1.5,35.81,11111222 
ENP,ioos.station.NOAA.NDBC:GBTF1:1,2019-10-12T16:00:00Z,25.1670,-80.8010,1.5,35.91,11111222 
ENP,ioos.station.NOAA.NDBC:GBTF1:1,2019-10-12T17:00:00Z,25.1670,-80.8010,1.5,36.14,11111222 
ENP,ioos.station.NOAA.NDBC:GBTF1:1,2019-10-12T18:00:00Z,25.1670,-80.8010,1.5,36.16,11111222 
ENP,ioos.station.NOAA.NDBC:GBTF1:1,2019-10-12T19:00:00Z,25.1670,-80.8010,1.5,36.04,11111222 
ENP,ioos.station.NOAA.NDBC:GBTF1:1,2019-10-12T20:00:00Z,25.1670,-80.8010,1.5,35.95,11111222 
ENP,ioos.station.NOAA.NDBC:GBTF1:1,2019-10-12T21:00:00Z,25.1670,-80.8010,1.5,35.75,11111222 
ENP,ioos.station.NOAA.NDBC:GBTF1:1,2019-10-12T22:00:00Z,25.1670,-80.8010,1.5,35.85,11111222 
ENP,ioos.station.NOAA.NDBC:GBTF1:1,2019-10-12T23:00:00Z,25.1670,-80.8010,1.5,35.9,11111222 
ENP,ioos.station.NOAA.NDBC:GBTF1:1,2019-10-13T00:00:00Z,25.1670,-80.8010,1.5,35.87,11111222 
ENP,ioos.station.NOAA.NDBC:GBTF1:1,2019-10-13T01:00:00Z,25.1670,-80.8010,1.5,35.82,11111222 
ENP,ioos.station.NOAA.NDBC:GBTF1:1,2019-10-13T02:00:00Z,25.1670,-80.8010,1.5,35.78,11111222 
ENP,ioos.station.NOAA.NDBC:GBTF1:1,2019-10-13T04:00:00Z,25.1670,-80.8010,1.5,35.73,11111222 
ENP,ioos.station.NOAA.NDBC:GBTF1:1,2019-10-13T05:00:00Z,25.1670,-80.8010,1.5,35.69,11111222 
ENP,ioos.station.NOAA.NDBC:GBTF1:1,2019-10-13T06:00:00Z,25.1670,-80.8010,1.5,35.67,11111222 
ENP,ioos.station.NOAA.NDBC:GBTF1:1,2019-10-13T07:00:00Z,25.1670,-80.8010,1.5,35.67,11111222 
ENP,ioos.station.NOAA.NDBC:GBTF1:1,2019-10-13T08:00:00Z,25.1670,-80.8010,1.5,35.66,11111222 
ENP,ioos.station.NOAA.NDBC:GBTF1:1,2019-10-13T09:00:00Z,25.1670,-80.8010,1.5,35.61,11111222 
ENP,ioos.station.NOAA.NDBC:GBTF1:1,2019-10-13T10:00:00Z,25.1670,-80.8010,1.5,35.57,11111222 
ENP,ioos.station.NOAA.NDBC:GBTF1:1,2019-10-13T11:00:00Z,25.1670,-80.8010,1.5,35.5,11111222 
ENP,ioos.station.NOAA.NDBC:GBTF1:1,2019-10-13T12:00:00Z,25.1670,-80.8010,1.5,35.54,11111222 
ENP,ioos.station.NOAA.NDBC:GBTF1:1,2019-10-13T13:00:00Z,25.1670,-80.8010,1.5,35.56,11111222 
ENP,ioos.station.NOAA.NDBC:GBTF1:1,2019-10-13T14:00:00Z,25.1670,-80.8010,1.5,35.58,11111222 
ENP,ioos.station.NOAA.NDBC:GBTF1:1,2019-10-13T15:00:00Z,25.1670,-80.8010,1.5,35.61,11111222 
ENP,ioos.station.NOAA.NDBC:GBTF1:1,2019-10-13T16:00:00Z,25.1670,-80.8010,1.5,35.59,11111222 